Temperature
12 12 12 12 11 11 11 11 11 11 11 11 10 10 10 10 10 10 10 10 10 10 10 10 10 9 9 9 9 9 9 9 9 9 9 8 8 8 8 8 8 8 8
12 12 12 11 11 11 11 11 10 10 10 10 10 10 10 10 10 10 10 10 10 10 9 9 9 9 9 9 9 9 9 9 9 8 8 8 8 8 8 8 8 8 8
12 12 11 11 11 11 11 10 10 10 10 10 10 10 10 10 10 10 10 10 10 9 9 9 9 9 9 9 9 9 9 8 8 8 8 8 8 8 8 7 7 7 7
11 11 11 11 11 10 10 10 10 10 10 10 9 9 9 9 10 10 9 9 9 9 9 9 9 9 9 9 9 9 8 8 8 8 8 8 7 7 7 7 7 7 7
11 11 11 10 10 10 10 10 10 9 9 9 9 9 9 9 9 9 9 9 9 9 9 9 9 9 9 9 9 8 8 8 8 8 7 7 7 7 7 7 7 7 7
10 10 10 10 10 10 9 9 9 9 9 9 9 9 9 9 9 9 9 9 9 9 9 8 8 8 8 8 8 8 8 8 8 7 7 7 7 7 7 7 7 7 6
10 10 10 10 9 9 9 9 9 9 8 8 8 8 8 8 8 8 8 8 8 8 8 8 8 8 8 8 8 8 8 8 7 7 7 7 7 7 7 7 7 6 6
10 10 10 9 9 9 9 8 8 8 8 8 8 8 8 8 8 8 8 8 8 8 8 8 8 8 8 8 8 8 7 7 7 7 7 7 7 7 7 7 6 6 6
9 9 9 9 9 8 8 8 8 8 8 8 7 7 7 7 7 8 7 7 7 8 8 8 7 7 7 7 7 7 7 7 7 7 6 6 6 6 6 6 6 6 6
9 9 8 8 8 8 8 8 8 7 7 7 7 7 7 7 7 7 7 7 7 7 7 7 7 7 7 7 7 7 7 7 7 6 6 6 6 6 6 6 6 6 6
9 8 8 8 8 8 8 7 7 7 7 7 7 7 7 7 7 7 7 7 7 7 7 7 7 7 7 6 6 7 6 6 6 6 6 6 6 6 6 6 6 6 6
8 8 8 7 7 7 7 7 7 7 7 6 6 6 6 6 6 6 6 6 6 6 6 6 6 6 6 6 6 6 6 6 6 6 6 6 5 6 5 5 5 5 5
8 7 7 7 7 7 7 7 7 6 6 6 6 6 6 6 6 6 6 6 6 6 6 6 6 6 6 6 6 6 5 5 5 5 5 5 5 5 5 5 5 5 5
7 7 7 7 7 6 6 6 6 6 6 6 6 5 5 6 6 6 5 6 6 5 5 5 5 5 5 5 5 5 5 5 5 5 5 5 5 5 5 5 5 5 5
7 6 6 6 6 6 6 6 6 6 6 5 5 5 5 5 5 5 5 5 5 5 5 5 5 5 5 5 5 5 5 5 5 5 5 5 5 5 5 4 4 4 4
6 6 6 6 6 6 6 6 5 5 5 5 5 5 5 5 5 5 5 5 5 4 4 5 5 5 5 5 5 5 5 4 4 4 4 4 4 4 4 4 4 4 4
6 6 6 5 5 5 5 5 5 5 5 5 4 4 4 4 4 4 4 4 4 4 4 4 4 4 4 4 4 4 4 4 4 4 4 4 3 4 4 4 4 4 4
6 5 5 5 5 5 5 4 4 4 4 4 4 4 4 4 4 4 4 4 4 4 4 4 4 4 4 4 4 4 4 4 4 4 3 3 3 3 3 3 3 3 4
5 5 5 5 5 4 4 4 4 4 4 4 4 4 3 3 3 3 3 3 3 3 3 3 3 3 3 3 3 3 3 3 3 3 3 3 3 3 3 3 3 3 3
5 5 5 4 4 4 4 4 3 3 3 3 3 3 3 3 3 3 3 3 3 3 3 3 3 3 3 3 3 3 3 3 3 3 3 3 3 3 3 3 3 3 3
4 4 4 4 4 4 3 3 3 3 3 3 3 3 3 2 2 2 2 2 2 2 2 2 2 2 2 2 2 2 2 2 2 2 2 3 2 2 2 2 2 2 2
4 4 4 4 4 3 3 3 3 3 2 2 2 2 2 2 2 2 2 2 2 2 2 2 2 2 2 2 2 2 2 2 2 2 2 2 2 2 2 2 2 2 2
3 3 3 3 3 3 3 2 2 2 2 2 2 2 1 1 1 1 1 1 1 1 1 1 1 1 1 1 1 1 2 2 2 2 2 2 2 2 2 2 2 2 2
3 3 3 3 3 3 2 2 2 2 2 1 1 1 1 1 1 1 1 1 1 1 1 1 1 1 1 1 1 1 1 1 1 1 1 1 1 2 2 2 2 2 2
3 2 2 2 2 2 2 2 1 1 1 1 1 1 1 1 1 1 1 1 1 1 1 1 0 1 1 1 0 1 1 1 1 1 1 1 1 1 1 1 1 1 1
2 2 2 2 2 2 1 1 1 1 1 1 1 1 1 0 0 0 0 0 0 0 0 0 0 0 0 0 0 0 0 0 0 0 0 0 1 1 1 1 1 1 1
Wind_Speed
1 1 2 2 2 2 1 1 2 2 2 1 1 1 1 1 1 1 1 1 1 0 0 0 0 1 1 1 1 1 2 1 0 1 1 0 1 1 1 1 1 2 1
1 1 2 2 2 2 1 1 1 1 1 1 1 1 0 1 1 0 0 0 0 0 1 0 0 1 1 1 1 1 1 0 1 1 1 0 0 1 1 1 0 1 1
2 2 2 2 2 1 1 1 1 1 1 1 1 1 0 0 1 1 1 1 0 0 1 0 1 1 1 0 0 0 1 1 1 1 1 1 1 1 0 1 1 1 1
1 1 2 1 1 1 1 0 0 1 1 1 1 1 1 0 0 1 1 1 1 0 0 1 0 1 1 0 1 1 1 0 0 1 1 1 1 1 0 1 2 2 2
1 1 1 1 1 1 1 0 1 1 1 1 1 1 1 1 1 1 2 2 1 1 1 1 0 1 0 0 0 1 1 1 1 1 1 1 1 1 2 2 2 2 3
1 1 1 1 1 1 0 1 0 1 1 1 2 1 1 1 1 2 2 2 2 2 2 2 2 1 0 0 1 1 1 1 1 2 2 2 3 2 2 2 2 2 3
1 1 1 0 0 1 1 1 1 2 2 2 2 2 2 2 3 3 4 3 3 3 2 2 2 2 1 2 2 3 2 3 3 3 3 3 3 3 2 3 3 3 4
1 1 1 1 1 1 1 1 2 2 2 2 2 2 2 3 4 5 5 3 3 3 2 2 1 2 2 1 1 2 2 3 4 3 3 4 3 3 4 4 4 4 4
1 1 1 1 1 1 1 2 2 2 2 3 3 2 2 3 5 5 4 3 3 4 3 2 2 3 4 2 2 3 3 3 4 5 5 5 5 5 4 2 2 2 4
0 1 1 1 1 1 1 2 2 2 2 3 3 3 3 3 4 5 4 2 3 3 3 3 3 3 3 3 3 3 4 4 3 3 4 5 5 6 7 4 4 3 3
2 2 2 2 1 1 1 1 2 2 2 3 3 3 2 2 3 4 4 2 3 3 3 3 2 3 3 4 4 4 5 4 3 3 4 4 3 4 4 5 4 4 4
2 1 2 2 2 2 1 1 1 1 2 3 3 3 2 2 2 4 5 5 4 3 4 3 3 4 5 5 5 5 7 6 3 3 3 4 4 4 4 4 4 4 5
1 1 1 1 2 1 1 1 2 1 2 3 3 2 2 2 2 4 5 6 6 4 4 5 5 5 5 5 7 7 6 4 3 3 4 4 4 4 3 2 3 3 4
1 2 1 1 2 2 1 1 1 1 2 3 3 3 3 2 1 2 2 3 4 4 4 5 5 5 5 6 6 5 4 4 4 4 4 4 3 2 2 2 3 3 3
1 1 1 1 1 2 2 2 1 1 1 2 2 2 2 2 3 4 3 3 3 3 3 2 2 2 3 3 3 3 3 3 4 3 3 3 3 3 3 3 3 3 3
2 2 1 1 1 1 1 2 3 2 3 2 2 3 3 4 5 5 5 6 6 5 3 3 4 3 4 4 4 3 3 3 3 3 3 3 4 3 3 3 3 3 4
2 2 1 1 1 1 1 2 2 3 3 3 3 4 4 5 5 5 5 5 5 4 3 4 4 4 4 4 4 4 4 4 3 4 4 4 3 3 4 4 4 4 4
2 2 1 1 1 1 2 2 2 2 3 3 3 4 4 5 5 5 4 3 2 2 3 3 4 4 3 4 4 4 4 3 3 4 4 4 4 4 4 4 4 5 5
2 2 1 1 1 1 2 2 2 3 3 3 2 3 4 4 4 4 3 2 2 3 3 3 3 3 3 4 4 3 4 4 4 4 4 5 4 4 5 5 4 6 5
2 3 2 1 1 1 2 2 2 3 3 3 2 2 2 2 2 2 2 2 2 3 3 3 3 3 3 3 3 3 4 4 4 4 5 5 5 5 5 6 5 5 4
2 2 3 2 1 1 2 2 2 2 3 3 2 2 2 2 2 3 2 2 3 3 3 3 3 3 3 3 3 4 4 4 4 4 4 4 5 5 5 5 5 5 5
2 2 2 1 1 1 2 2 2 2 3 3 3 2 3 2 2 3 3 3 3 3 3 3 3 3 3 3 4 4 4 4 4 4 4 4 4 5 5 5 5 5 4
2 3 2 2 1 2 2 2 2 2 3 3 3 3 3 2 2 3 3 3 3 3 3 3 3 3 3 4 4 3 4 4 4 4 5 5 5 5 5 5 6 6 5
3 3 2 2 2 2 2 2 2 2 3 3 3 3 3 3 3 3 3 3 3 3 3 3 4 4 5 4 4 4 5 6 6 5 6 6 6 5 5 5 6 6 5
2 2 2 2 2 2 2 2 3 3 3 3 3 3 3 3 3 3 3 3 3 3 4 4 4 4 6 6 5 5 6 7 7 7 6 5 6 6 6 6 5 5 5
2 2 2 2 2 2 2 3 3 3 3 3 3 3 3 3 4 3 3 3 4 4 4 4 5 6 6 6 6 7 8 8 8 8 6 4 5 5 5 5 6 5 5
Wind_Direction
120 120 119 117 122 122 102 94 91 95 94 101 95 59 22 20 31 89 91 70 51 354 62 104 1 36 54 40 35 36 29 72 98 330 350 55 50 73 66 64 140 114 77
117 112 110 99 102 119 118 118 112 116 113 112 118 135 11 346 2 68 119 38 92 325 315 343 337 63 61 40 31 30 5 99 141 247 299 312 280 190 163 251 257 169 165
82 107 103 103 106 109 114 125 137 154 147 137 159 153 167 325 345 308 228 212 143 320 318 291 229 116 127 159 120 32 327 330 127 187 256 279 288 276 305 301 295 253 251
74 109 123 127 131 128 112 117 174 183 160 212 201 183 205 203 256 300 335 355 66 79 4 321 326 122 156 206 230 229 240 237 220 177 214 256 268 277 300 278 302 294 288
80 85 128 151 132 119 114 221 187 201 242 244 238 222 235 223 254 359 340 330 309 257 244 236 123 63 111 160 261 283 304 236 225 210 225 252 250 275 269 264 283 293 288
113 84 80 79 101 135 179 252 220 261 256 248 241 233 249 263 276 299 307 287 280 258 246 227 203 190 358 358 307 294 299 264 253 231 240 240 247 246 269 279 281 291 288
121 99 78 59 255 203 222 241 243 243 253 269 259 233 224 224 241 264 280 282 278 269 250 240 252 228 177 213 266 280 283 288 271 240 245 249 244 241 242 262 269 269 265
115 88 53 330 293 266 249 261 271 269 252 257 262 258 246 244 249 256 272 272 278 273 250 232 223 211 228 212 249 276 270 271 263 255 237 244 246 241 232 237 246 267 280
64 29 344 322 307 292 275 284 285 278 265 259 252 249 241 249 253 250 254 260 268 277 261 236 231 213 215 221 241 268 279 280 278 274 280 280 273 267 261 251 255 265 276
11 332 333 333 307 284 274 277 293 290 276 273 266 260 246 237 247 245 242 243 256 271 275 253 242 237 218 219 220 241 260 268 279 290 285 280 270 264 263 234 223 237 255
28 18 1 358 350 329 327 314 309 305 298 283 274 272 262 257 246 239 238 252 264 271 274 268 249 243 238 247 247 242 260 273 259 259 266 263 261 251 249 248 229 217 232
31 6 353 353 339 343 344 323 313 300 288 288 287 283 281 269 255 242 241 260 289 279 274 276 268 257 259 263 266 262 271 279 260 253 258 254 250 253 255 256 254 238 234
358 341 346 342 338 341 338 321 313 313 307 300 296 293 298 299 284 262 251 263 276 278 278 287 293 273 264 260 259 258 261 254 245 250 255 255 249 245 251 263 278 274 270
338 334 346 348 340 336 334 324 330 333 320 309 304 299 298 309 328 315 290 278 275 278 284 286 285 271 257 257 262 255 238 234 235 239 248 256 256 252 250 251 261 265 270
319 326 334 334 332 336 355 350 333 296 278 294 300 304 309 307 306 308 296 280 273 268 284 282 271 263 250 253 253 253 246 241 247 245 247 257 256 249 253 250 245 253 254
317 318 322 326 328 331 338 343 346 308 310 305 302 306 312 306 307 307 301 294 288 278 271 256 255 248 244 247 250 252 249 245 246 247 252 254 251 251 256 260 252 246 251
303 308 319 320 323 322 313 303 306 322 321 316 308 313 318 323 318 308 301 300 290 277 258 255 254 250 247 249 249 247 249 248 247 246 246 250 255 257 256 253 249 251 254
314 309 318 303 307 304 296 294 292 297 304 298 286 286 298 304 303 305 310 320 303 274 264 269 271 268 263 259 255 251 251 253 252 253 250 246 244 249 257 259 252 247 249
320 318 310 305 307 307 309 309 310 302 298 302 309 305 294 294 293 299 304 293 282 282 283 284 284 284 282 275 271 266 261 256 258 257 257 254 245 244 251 254 256 258 251
308 307 311 304 303 314 318 316 311 309 309 308 308 313 332 334 311 293 279 278 280 284 285 283 285 289 289 286 284 274 266 263 260 259 259 255 249 245 248 251 251 248 248
312 296 300 309 298 300 300 299 301 306 308 311 308 303 321 295 288 290 286 279 277 281 284 285 286 287 285 284 283 280 271 265 262 262 263 262 257 257 254 251 250 246 247
320 309 296 282 291 309 310 306 305 304 306 312 312 303 291 290 293 294 291 288 286 284 282 282 282 281 280 279 280 280 279 280 278 272 269 269 266 264 262 258 251 250 246
314 306 306 307 305 299 296 294 297 300 309 315 316 314 306 296 293 288 285 287 289 287 288 284 282 284 285 282 282 279 276 281 283 283 280 275 269 266 267 265 261 257 242
299 300 307 312 313 303 297 300 305 308 309 308 307 307 307 303 300 297 295 292 291 289 291 289 283 284 293 295 287 283 287 293 297 290 282 275 273 269 264 263 262 257 246
303 308 316 310 305 303 305 311 310 306 304 306 310 310 307 304 304 305 305 298 296 291 287 288 292 290 290 289 292 297 299 296 295 298 293 285 275 272 266 261 258 253 247
306 314 316 307 304 308 311 309 307 307 305 306 308 304 302 301 302 303 305 301 297 290 286 288 291 290 292 293 293 295 297 297 296 294 294 288 284 280 275 267 260 251 247
Height
1512 1512 1513 1513 1513 1514 1514 1514 1514 1513 1513 1514 1514 1514 1514 1514 1514 1515 1515 1515 1515 1515 1516 1516 1516 1517 1517 1517 1517 1517 1518 1518 1517 1517 1517 1517 1516 1516 1515 1514 1513 1512 1512
1510 1510 1511 1511 1512 1512 1512 1512 1512 1512 1512 1512 1512 1512 1513 1513 1513 1513 1513 1514 1514 1514 1515 1515 1515 1515 1515 1515 1516 1516 1516 1516 1516 1515 1515 1515 1515 1514 1513 1513 1512 1511 1511
1508 1509 1509 1510 1510 1510 1510 1510 1510 1510 1510 1510 1510 1511 1511 1511 1511 1512 1512 1512 1512 1513 1513 1513 1513 1513 1513 1513 1514 1514 1514 1514 1514 1514 1513 1513 1513 1513 1512 1511 1511 1510 1510
1506 1507 1507 1508 1508 1508 1508 1509 1509 1509 1509 1509 1509 1509 1509 1509 1509 1510 1510 1510 1510 1511 1511 1511 1511 1511 1511 1511 1511 1511 1512 1512 1512 1512 1511 1511 1511 1511 1510 1509 1508 1508 1507
1505 1505 1506 1506 1507 1507 1507 1507 1507 1507 1507 1507 1507 1507 1507 1507 1507 1508 1508 1508 1508 1508 1509 1509 1509 1509 1509 1509 1509 1509 1509 1509 1509 1509 1509 1508 1508 1508 1507 1507 1506 1506 1505
1503 1503 1504 1504 1504 1505 1504 1505 1504 1504 1504 1504 1504 1504 1505 1505 1505 1505 1506 1506 1506 1506 1506 1506 1506 1506 1506 1506 1506 1506 1507 1506 1506 1506 1506 1506 1505 1505 1505 1505 1504 1503 1502
1502 1502 1502 1502 1502 1502 1502 1502 1502 1501 1502 1502 1502 1502 1502 1502 1503 1503 1503 1503 1503 1503 1503 1503 1503 1504 1503 1503 1503 1503 1503 1503 1504 1504 1503 1502 1502 1502 1502 1502 1501 1500 1500
1500 1500 1500 1500 1500 1500 1500 1500 1499 1499 1499 1499 1499 1499 1499 1499 1499 1500 1500 1500 1500 1500 1500 1500 1500 1500 1500 1500 1500 1500 1500 1500 1500 1500 1500 1499 1499 1499 1499 1499 1498 1497 1497
1498 1498 1498 1498 1497 1497 1497 1497 1496 1496 1496 1495 1495 1495 1495 1495 1496 1496 1496 1496 1496 1496 1497 1497 1497 1497 1498 1497 1497 1496 1496 1496 1496 1496 1496 1496 1496 1496 1496 1495 1494 1494 1492
1496 1496 1496 1496 1495 1495 1494 1494 1493 1493 1493 1492 1492 1492 1492 1492 1492 1493 1493 1493 1492 1493 1493 1494 1494 1494 1494 1494 1493 1493 1492 1492 1492 1491 1491 1491 1491 1491 1491 1491 1490 1490 1489
1495 1495 1494 1494 1493 1493 1492 1491 1491 1490 1489 1489 1489 1488 1488 1488 1488 1489 1489 1489 1489 1489 1489 1490 1490 1490 1490 1490 1489 1489 1488 1488 1488 1487 1487 1487 1487 1486 1486 1486 1486 1486 1485
1493 1493 1492 1492 1491 1490 1489 1488 1488 1487 1486 1486 1485 1485 1485 1485 1485 1484 1485 1485 1485 1485 1485 1485 1486 1486 1485 1485 1485 1485 1485 1485 1484 1483 1483 1482 1482 1482 1482 1482 1482 1482 1481
1491 1491 1490 1490 1489 1488 1487 1486 1485 1484 1483 1483 1482 1481 1481 1481 1481 1481 1481 1481 1481 1481 1481 1481 1481 1481 1481 1481 1481 1481 1480 1480 1480 1479 1478 1478 1478 1478 1478 1477 1477 1477 1477
1489 1488 1488 1487 1486 1485 1484 1483 1482 1481 1481 1480 1479 1478 1478 1477 1477 1477 1476 1477 1477 1477 1477 1477 1477 1477 1476 1476 1476 1476 1476 1476 1475 1475 1474 1474 1474 1473 1473 1473 1472 1472 1471
1486 1486 1485 1485 1484 1483 1482 1481 1480 1479 1479 1477 1476 1475 1474 1473 1473 1473 1473 1472 1472 1472 1472 1472 1472 1472 1472 1472 1471 1471 1471 1471 1471 1471 1470 1469 1469 1469 1468 1468 1468 1467 1467
1484 1483 1483 1482 1481 1480 1479 1478 1477 1477 1476 1475 1474 1473 1471 1471 1469 1469 1468 1468 1468 1468 1468 1467 1467 1467 1467 1467 1467 1467 1467 1466 1466 1466 1465 1465 1464 1464 1463 1463 1463 1462 1462
1481 1481 1480 1479 1478 1477 1476 1475 1474 1473 1472 1471 1470 1469 1469 1467 1466 1465 1465 1464 1463 1463 1463 1462 1463 1463 1463 1463 1463 1462 1462 1462 1461 1461 1461 1460 1460 1459 1459 1458 1458 1457 1456
1479 1479 1478 1477 1476 1475 1474 1473 1472 1470 1469 1468 1467 1466 1465 1464 1463 1462 1461 1460 1459 1459 1458 1458 1458 1458 1458 1458 1458 1458 1457 1457 1457 1456 1456 1455 1455 1454 1454 1453 1452 1452 1451
1477 1476 1476 1475 1474 1473 1472 1471 1469 1468 1466 1465 1464 1463 1462 1461 1460 1459 1458 1457 1455 1455 1454 1454 1454 1454 1454 1454 1453 1453 1453 1452 1452 1451 1451 1450 1450 1449 1448 1448 1448 1447 1446
1474 1474 1473 1472 1471 1470 1469 1468 1467 1465 1464 1463 1461 1460 1459 1457 1456 1455 1454 1453 1452 1451 1451 1450 1450 1450 1449 1449 1449 1448 1448 1447 1446 1446 1445 1445 1445 1444 1443 1443 1442 1441 1441
1472 1471 1471 1470 1468 1468 1467 1466 1464 1463 1461 1460 1459 1458 1457 1455 1454 1453 1451 1450 1449 1448 1447 1447 1446 1445 1445 1444 1444 1443 1443 1442 1441 1441 1440 1440 1439 1439 1438 1437 1437 1436 1436
1470 1469 1468 1467 1466 1465 1464 1463 1462 1460 1459 1457 1456 1455 1454 1452 1451 1450 1448 1447 1446 1445 1444 1443 1442 1441 1441 1440 1439 1438 1438 1437 1436 1436 1435 1435 1434 1433 1432 1432 1431 1431 1430
1467 1466 1465 1464 1463 1462 1461 1460 1459 1458 1456 1454 1453 1452 1451 1449 1448 1446 1445 1444 1443 1441 1440 1439 1438 1437 1436 1436 1435 1434 1433 1432 1432 1431 1430 1429 1428 1428 1427 1426 1425 1425 1425
1465 1464 1463 1462 1460 1459 1458 1457 1456 1454 1453 1451 1450 1449 1447 1446 1444 1443 1441 1440 1439 1438 1436 1435 1434 1433 1432 1431 1430 1429 1428 1427 1427 1426 1425 1424 1423 1422 1421 1420 1420 1420 1420
1462 1461 1460 1459 1457 1456 1455 1454 1453 1451 1450 1448 1447 1445 1444 1443 1441 1439 1438 1436 1435 1434 1432 1431 1430 1429 1427 1426 1425 1424 1423 1422 1421 1421 1420 1419 1417 1417 1416 1415 1415 1414 1415
1459 1458 1457 1455 1454 1453 1452 1451 1449 1448 1447 1445 1444 1442 1441 1439 1437 1436 1434 1433 1431 1430 1428 1427 1426 1424 1423 1421 1420 1419 1418 1417 1416 1415 1414 1413 1412 1411 1410 1410 1409 1409 1409